Location: Casalecchio di Reno
(44.4760°N, 11.2757°E)
Time: 11:01:24
(UTC+02:00)

AO-73 - Pass Details

Date: 23 June 2024
Orbit: 555 x 624 km, 97.7° (Epoch: 17 July)

Event Time Altitude Azimuth Distance (km) Brightness Sun altitude
Rises 03:36:44 0° 26° (NNE) 2,749 ? -15.0°
Reaches altitude 10° 03:39:13 10° 41° (NE) 1,847 ? -14.7°
Maximum altitude 03:42:25 23° 94° (E) 1,214 ? -14.4°
Drops below altitude 10° 03:45:37 10° 148° (SSE) 1,842 ? -14.1°
Enters shadow 03:46:45 - 156° (SSE) 2,238 ? -14.0°
